Location: Plainartige
(45.6866°N, 1.7993°E)
Time: 04:41:13
(UTC+00:00)

Vanguard 1 - Pass Details

Date: 02 June 2022
Orbit: 649 x 3833 km, 34.2° (Epoch: 06 July)

Event Time Altitude Azimuth Distance (km) Brightness Sun altitude
Exits shadow 00:31:24 13° 236° (SW) 3,881 12.7 -21.5°
Maximum altitude 00:41:45 52° 166° (SSE) 3,047 12.1 -21.2°
Drops below altitude 10° 01:00:54 10° 98° (E) 6,666 14.4 -20.3°
Sets 01:06:48 0° 95° (E) 7,893 14.9 -20.0°
